Location: Gleizolles
(44.4833°N, 6.7667°E)
Time: 16:06:35
(UTC+00:00)

RS-15 - Pass Details

Date: 04 December 2022
Orbit: 1883 x 2162 km, 64.8° (Epoch: 05 February)

Event Time Altitude Azimuth Distance (km) Brightness Sun altitude
Rises 16:44:01 0° 304° (NW) 5,694 11.0 -8.8°
Reaches altitude 10° 16:48:18 10° 315° (NW) 4,687 10.3 -9.5°
Maximum altitude 16:58:50 31° 15° (NNE) 3,256 8.9 -11.3°
Enters shadow 17:07:15 15° 67° (ENE) 4,180 9.1 -12.7°
